Powrót do katalogu

FENGYUN 1C DEB

AktywnySSO
NORAD 30363·DEBRIS·🇨🇳 China

Wystrzelony May 10, 1999 z Taiyuan Satellite Launch Center

Loading…

Następne Przeloty (najbliższe 24 godziny)

TLE

ŚwieżeSource: Space-Track

Epoka: Sep 14, 2026, 11:51 UTC

1 30363U 99025ACA 26257.49393066  .00001488  00000-0  72385-3 0  9991
2 30363  99.0171 337.9079 0075944 334.6962  25.0501 14.18304991  7149

Śledź FENGYUN 1C DEB w czasie rzeczywistym z AllMySat

Download on the App Store